Time,TemperatureF,DewpointF,PressureIn,WindDirection,WindDirectionDegrees,WindSpeedMPH,WindSpeedGustMPH,Humidity,HourlyPrecipIn,Conditions,Clouds,dailyrainin,SolarRadiationWatts/m^2,SoftwareType,DateUTC
2013-03-05 00:05:00,32.7,-99.9,20.00,North,4,0.0,17.0,255,0.00,,,0.00,0,Wunderground v.1.15,2013-03-05 08:05:00,
2013-03-05 00:15:00,32.6,-99.9,20.00,North,3,4.0,17.0,255,0.00,,,0.00,0,Wunderground v.1.15,2013-03-05 08:15:00,
2013-03-05 00:25:00,32.4,-99.9,20.00,North,1,6.0,17.0,255,0.00,,,0.00,0,Wunderground v.1.15,2013-03-05 08:25:00,
2013-03-05 00:35:00,32.2,-99.9,20.00,North,3,1.0,17.0,255,0.00,,,0.00,0,Wunderground v.1.15,2013-03-05 08:35:00,
2013-03-05 00:40:00,31.9,-99.9,20.00,North,3,3.0,17.0,255,0.00,,,0.00,0,Wunderground v.1.15,2013-03-05 08:40:00,
2013-03-05 00:45:00,32.2,-99.9,20.00,North,3,1.0,17.0,255,0.00,,,0.00,0,Wunderground v.1.15,2013-03-05 08:45:00,
2013-03-05 00:55:00,31.7,-99.9,20.00,North,4,5.0,17.0,255,0.00,,,0.00,0,Wunderground v.1.15,2013-03-05 08:55:00,
2013-03-05 01:05:00,31.2,-99.9,20.00,North,4,4.0,17.0,255,0.00,,,0.00,0,Wunderground v.1.15,2013-03-05 09:05:00,
2013-03-05 01:15:00,31.9,-99.9,20.00,North,5,3.0,17.0,255,0.00,,,0.00,0,Wunderground v.1.15,2013-03-05 09:15:00,
2013-03-05 01:20:00,32.5,-99.9,20.00,North,4,1.0,17.0,255,0.00,,,0.00,0,Wunderground v.1.15,2013-03-05 09:20:00,
2013-03-05 01:30:00,32.1,-99.9,20.00,NNE,14,4.0,17.0,255,0.00,,,0.00,0,Wunderground v.1.15,2013-03-05 09:30:00,
2013-03-05 01:40:00,31.4,-99.9,20.00,NNE,15,2.0,17.0,255,0.00,,,0.00,0,Wunderground v.1.15,2013-03-05 09:40:00,
2013-03-05 01:50:00,32.0,-99.9,20.00,North,9,2.0,17.0,255,0.00,,,0.00,0,Wunderground v.1.15,2013-03-05 09:50:00,
2013-03-05 01:55:00,32.1,-99.9,20.00,North,6,3.0,17.0,255,0.00,,,0.00,0,Wunderground v.1.15,2013-03-05 09:55:00,
2013-03-05 02:05:00,32.5,-99.9,20.00,North,3,2.0,17.0,255,0.00,,,0.00,0,Wunderground v.1.15,2013-03-05 10:05:00,
2013-03-05 02:15:00,31.8,-99.9,20.00,North,4,3.0,17.0,255,0.00,,,0.00,0,Wunderground v.1.15,2013-03-05 10:15:00,
2013-03-05 02:25:00,31.9,-99.9,20.00,North,4,4.0,17.0,255,0.00,,,0.00,0,Wunderground v.1.15,2013-03-05 10:25:00,
2013-03-05 02:35:00,31.4,-99.9,20.00,North,4,1.0,17.0,255,0.00,,,0.00,0,Wunderground v.1.15,2013-03-05 10:35:00,
2013-03-05 02:40:00,31.8,-99.9,20.00,North,4,1.0,17.0,255,0.00,,,0.00,0,Wunderground v.1.15,2013-03-05 10:40:00,
2013-03-05 02:50:00,31.5,-99.9,20.00,North,4,2.0,17.0,255,0.00,,,0.00,0,Wunderground v.1.15,2013-03-05 10:50:00,
2013-03-05 03:00:00,31.5,-99.9,20.00,North,4,2.0,17.0,255,0.00,,,0.00,0,Wunderground v.1.15,2013-03-05 11:00:00,
2013-03-05 03:10:00,31.3,-99.9,20.00,North,10,5.0,17.0,255,0.00,,,0.00,0,Wunderground v.1.15,2013-03-05 11:10:00,
2013-03-05 03:20:00,31.6,-99.9,20.00,North,7,3.0,17.0,255,0.00,,,0.00,0,Wunderground v.1.15,2013-03-05 11:20:00,
2013-03-05 03:30:00,31.3,-99.9,20.00,North,6,3.0,17.0,255,0.00,,,0.00,0,Wunderground v.1.15,2013-03-05 11:30:00,
2013-03-05 03:40:00,32.0,-99.9,20.00,North,7,1.0,17.0,255,0.00,,,0.00,0,Wunderground v.1.15,2013-03-05 11:40:00,
2013-03-05 03:50:00,32.3,-99.9,20.00,North,5,0.0,17.0,255,0.00,,,0.00,0,Wunderground v.1.15,2013-03-05 11:50:00,
2013-03-05 04:00:00,32.6,-99.9,20.00,North,3,0.0,17.0,255,0.00,,,0.00,0,Wunderground v.1.15,2013-03-05 12:00:00,
2013-03-05 04:05:00,32.7,-99.9,20.00,North,3,0.0,17.0,255,0.00,,,0.00,0,Wunderground v.1.15,2013-03-05 12:05:00,
2013-03-05 04:15:00,32.2,-99.9,20.00,North,3,1.0,17.0,255,0.00,,,0.00,0,Wunderground v.1.15,2013-03-05 12:15:00,
2013-03-05 04:25:00,31.7,-99.9,20.00,North,3,1.0,17.0,255,0.00,,,0.00,0,Wunderground v.1.15,2013-03-05 12:25:00,
2013-03-05 04:35:00,31.7,-99.9,20.00,North,3,2.0,17.0,255,0.00,,,0.00,0,Wunderground v.1.15,2013-03-05 12:35:00,
2013-03-05 04:45:00,32.6,-99.9,20.00,North,3,0.0,17.0,255,0.00,,,0.00,0,Wunderground v.1.15,2013-03-05 12:45:00,
2013-03-05 04:55:00,32.6,-99.9,20.00,North,3,0.0,17.0,255,0.00,,,0.00,0,Wunderground v.1.15,2013-03-05 12:55:00,
2013-03-05 05:05:00,31.6,-99.9,20.00,North,3,2.0,17.0,255,0.00,,,0.00,0,Wunderground v.1.15,2013-03-05 13:05:00,
2013-03-05 05:15:00,32.5,-99.9,20.00,North,3,1.0,17.0,255,0.00,,,0.00,0,Wunderground v.1.15,2013-03-05 13:15:00,
2013-03-05 05:25:00,31.9,-99.9,20.00,North,3,3.0,17.0,255,0.00,,,0.00,0,Wunderground v.1.15,2013-03-05 13:25:00,
2013-03-05 05:30:00,32.4,-99.9,20.00,North,3,2.0,17.0,255,0.00,,,0.00,0,Wunderground v.1.15,2013-03-05 13:30:00,
2013-03-05 05:40:00,32.3,-99.9,20.00,North,0,4.0,17.0,255,0.00,,,0.00,0,Wunderground v.1.15,2013-03-05 13:40:00,
2013-03-05 05:50:00,32.9,-99.9,20.00,North,356,4.0,17.0,255,0.00,,,0.00,0,Wunderground v.1.15,2013-03-05 13:50:00,
2013-03-05 06:00:00,32.1,-99.9,20.00,North,357,3.0,17.0,255,0.00,,,0.00,0,Wunderground v.1.15,2013-03-05 14:00:00,
2013-03-05 06:10:00,32.4,-99.9,20.00,North,357,3.0,17.0,255,0.00,,,0.00,0,Wunderground v.1.15,2013-03-05 14:10:00,
2013-03-05 06:20:00,33.2,-99.9,20.00,North,354,1.0,17.0,255,0.00,,,0.00,0,Wunderground v.1.15,2013-03-05 14:20:00,
2013-03-05 06:30:00,33.6,-99.9,20.00,NNW,337,0.0,17.0,255,0.00,,,0.00,0,Wunderground v.1.15,2013-03-05 14:30:00,
2013-03-05 06:40:00,33.8,-99.9,20.00,NNW,337,0.0,17.0,255,0.00,,,0.00,0,Wunderground v.1.15,2013-03-05 14:40:00,
2013-03-05 06:50:00,32.9,-99.9,20.00,NNW,338,3.0,17.0,255,0.00,,,0.00,0,Wunderground v.1.15,2013-03-05 14:50:00,
2013-03-05 06:55:00,33.7,-99.9,20.00,NNW,338,3.0,17.0,255,0.00,,,0.00,0,Wunderground v.1.15,2013-03-05 14:55:00,
2013-03-05 07:05:00,34.2,-99.9,20.00,NNW,338,0.0,17.0,255,0.00,,,0.00,0,Wunderground v.1.15,2013-03-05 15:05:00,
2013-03-05 07:15:00,34.9,-99.9,20.00,NNW,338,0.0,17.0,255,0.00,,,0.00,0,Wunderground v.1.15,2013-03-05 15:15:00,
2013-03-05 07:25:00,34.6,-99.9,20.00,NNW,338,0.0,17.0,255,0.00,,,0.00,0,Wunderground v.1.15,2013-03-05 15:25:00,
2013-03-05 07:35:00,36.7,-99.9,20.00,NNW,338,0.0,17.0,255,0.00,,,0.00,0,Wunderground v.1.15,2013-03-05 15:35:00,
2013-03-05 07:40:00,36.0,-99.9,20.00,NNW,338,0.0,17.0,255,0.00,,,0.00,0,Wunderground v.1.15,2013-03-05 15:40:00,
2013-03-05 07:50:00,36.4,-99.9,20.00,NNW,338,0.0,17.0,255,0.00,,,0.00,0,Wunderground v.1.15,2013-03-05 15:50:00,
2013-03-05 07:55:00,35.8,-99.9,20.00,NNW,338,0.0,17.0,255,0.00,,,0.00,0,Wunderground v.1.15,2013-03-05 15:55:00,
2013-03-05 08:05:00,35.8,-99.9,20.00,WSW,258,3.0,17.0,255,0.00,,,0.00,0,Wunderground v.1.15,2013-03-05 16:05:00,
2013-03-05 08:15:00,36.2,-99.9,20.00,WSW,252,2.0,17.0,255,0.00,,,0.00,0,Wunderground v.1.15,2013-03-05 16:15:00,
2013-03-05 08:25:00,37.7,-99.9,20.00,SW,224,3.0,17.0,255,0.00,,,0.00,0,Wunderground v.1.15,2013-03-05 16:25:00,
2013-03-05 08:30:00,38.4,-99.9,20.00,SW,226,1.0,17.0,255,0.00,,,0.00,0,Wunderground v.1.15,2013-03-05 16:30:00,
2013-03-05 08:40:00,38.7,-99.9,20.00,WSW,242,1.0,17.0,255,0.00,,,0.00,0,Wunderground v.1.15,2013-03-05 16:40:00,
2013-03-05 08:50:00,36.7,-99.9,20.00,WSW,243,2.0,17.0,255,0.00,,,0.00,0,Wunderground v.1.15,2013-03-05 16:50:00,
2013-03-05 09:00:00,37.1,-99.9,20.00,WSW,243,0.0,17.0,255,0.00,,,0.00,0,Wunderground v.1.15,2013-03-05 17:00:00,
2013-03-05 09:10:00,36.6,-99.9,20.00,WSW,243,3.0,17.0,255,0.00,,,0.00,0,Wunderground v.1.15,2013-03-05 17:10:00,
2013-03-05 09:20:00,37.4,-99.9,20.00,NNW,332,0.0,17.0,255,0.00,,,0.00,0,Wunderground v.1.15,2013-03-05 17:20:00,
2013-03-05 09:30:00,38.9,-99.9,20.00,NNW,332,0.0,17.0,255,0.00,,,0.00,0,Wunderground v.1.15,2013-03-05 17:30:00,
2013-03-05 09:40:00,38.1,-99.9,20.00,NNW,332,0.0,17.0,255,0.00,,,0.00,0,Wunderground v.1.15,2013-03-05 17:40:00,
2013-03-05 09:50:00,39.2,-99.9,20.00,NNW,332,0.0,17.0,255,0.00,,,0.00,0,Wunderground v.1.15,2013-03-05 17:50:00,
2013-03-05 09:55:00,40.1,-99.9,20.00,NNW,332,0.0,17.0,255,0.00,,,0.00,0,Wunderground v.1.15,2013-03-05 17:55:00,
2013-03-05 10:05:00,40.7,-99.9,20.00,NNW,332,0.0,17.0,255,0.00,,,0.00,0,Wunderground v.1.15,2013-03-05 18:05:00,
2013-03-05 10:15:00,40.6,-99.9,20.00,NNW,332,3.0,17.0,255,0.00,,,0.00,0,Wunderground v.1.15,2013-03-05 18:15:00,
2013-03-05 10:25:00,40.0,-99.9,20.00,North,3,2.0,17.0,255,0.00,,,0.00,0,Wunderground v.1.15,2013-03-05 18:25:00,
2013-03-05 10:35:00,42.1,-99.9,20.00,North,3,3.0,17.0,255,0.00,,,0.00,0,Wunderground v.1.15,2013-03-05 18:35:00,
2013-03-05 10:45:00,41.4,-99.9,20.00,North,6,7.0,17.0,255,0.00,,,0.00,0,Wunderground v.1.15,2013-03-05 18:45:00,
2013-03-05 10:55:00,42.6,-99.9,20.00,North,357,4.0,17.0,255,0.00,,,0.00,0,Wunderground v.1.15,2013-03-05 18:55:00,
2013-03-05 11:05:00,42.8,-99.9,20.00,North,358,5.0,17.0,255,0.00,,,0.00,0,Wunderground v.1.15,2013-03-05 19:05:00,
2013-03-05 11:15:00,43.8,-99.9,20.00,NNE,21,6.0,17.0,255,0.00,,,0.00,0,Wunderground v.1.15,2013-03-05 19:15:00,
2013-03-05 11:25:00,44.2,-99.9,20.00,NNE,12,2.0,17.0,255,0.00,,,0.00,0,Wunderground v.1.15,2013-03-05 19:25:00,
2013-03-05 11:35:00,45.3,-99.9,20.00,North,11,5.0,17.0,255,0.00,,,0.00,0,Wunderground v.1.15,2013-03-05 19:35:00,
2013-03-05 11:45:00,46.4,-99.9,20.00,North,7,5.0,17.0,255,0.00,,,0.00,0,Wunderground v.1.15,2013-03-05 19:45:00,
2013-03-05 11:55:00,47.4,-99.9,20.00,North,6,2.0,17.0,255,0.00,,,0.00,0,Wunderground v.1.15,2013-03-05 19:55:00,
2013-03-05 12:05:00,52.4,-99.9,20.00,North,3,2.0,17.0,255,0.00,,,0.00,0,Wunderground v.1.15,2013-03-05 20:05:00,
2013-03-05 12:15:00,52.9,-99.9,20.00,North,3,3.0,17.0,255,0.00,,,0.00,0,Wunderground v.1.15,2013-03-05 20:15:00,
2013-03-05 12:25:00,54.2,-99.9,20.00,WNW,287,0.0,17.0,255,0.00,,,0.00,0,Wunderground v.1.15,2013-03-05 20:25:00,
2013-03-05 12:35:00,50.5,-99.9,20.00,SW,233,1.0,17.0,255,0.00,,,0.00,0,Wunderground v.1.15,2013-03-05 20:35:00,
2013-03-05 12:45:00,49.8,-99.9,20.00,SW,228,4.0,17.0,255,0.00,,,0.00,0,Wunderground v.1.15,2013-03-05 20:45:00,
2013-03-05 12:50:00,48.8,-99.9,20.00,SW,224,6.0,17.0,255,0.00,,,0.00,0,Wunderground v.1.15,2013-03-05 20:50:00,
2013-03-05 13:00:00,46.5,-99.9,20.00,WSW,241,4.0,17.0,255,0.00,,,0.00,0,Wunderground v.1.15,2013-03-05 21:00:00,
2013-03-05 13:10:00,47.1,-99.9,20.00,SW,230,9.0,17.0,255,0.00,,,0.00,0,Wunderground v.1.15,2013-03-05 21:10:00,
2013-03-05 13:15:00,47.7,-99.9,20.00,WSW,252,3.0,17.0,255,0.00,,,0.00,0,Wunderground v.1.15,2013-03-05 21:15:00,
2013-03-05 13:25:00,46.8,-99.9,20.00,SW,217,9.0,17.0,255,0.00,,,0.00,0,Wunderground v.1.15,2013-03-05 21:25:00,
2013-03-05 13:35:00,45.5,-99.9,20.00,SW,219,8.0,17.0,255,0.00,,,0.00,0,Wunderground v.1.15,2013-03-05 21:35:00,
2013-03-05 13:45:00,46.3,-99.9,20.00,SW,217,6.0,17.0,255,0.00,,,0.00,0,Wunderground v.1.15,2013-03-05 21:45:00,
2013-03-05 13:55:00,46.1,-99.9,20.00,WSW,242,0.0,17.0,255,0.00,,,0.00,0,Wunderground v.1.15,2013-03-05 21:55:00,
2013-03-05 14:05:00,47.4,-99.9,20.00,SW,225,4.0,17.0,255,0.00,,,0.00,0,Wunderground v.1.15,2013-03-05 22:05:00,
2013-03-05 14:15:00,46.9,-99.9,20.00,SSW,206,6.0,17.0,255,0.00,,,0.00,0,Wunderground v.1.15,2013-03-05 22:15:00,
2013-03-05 14:20:00,46.8,-99.9,20.00,SW,218,4.0,17.0,255,0.00,,,0.00,0,Wunderground v.1.15,2013-03-05 22:20:00,
2013-03-05 14:30:00,46.1,-99.9,20.00,SW,225,6.0,17.0,255,0.00,,,0.00,0,Wunderground v.1.15,2013-03-05 22:30:00,
2013-03-05 14:40:00,46.7,-99.9,20.00,SW,219,2.0,17.0,255,0.00,,,0.00,0,Wunderground v.1.15,2013-03-05 22:40:00,
2013-03-05 14:50:00,46.1,-99.9,20.00,SSW,213,6.0,17.0,255,0.00,,,0.00,0,Wunderground v.1.15,2013-03-05 22:50:00,
2013-03-05 15:00:00,44.9,-99.9,20.00,SW,223,7.0,17.0,255,0.00,,,0.00,0,Wunderground v.1.15,2013-03-05 23:00:00,
2013-03-05 15:10:00,44.8,-99.9,20.00,SW,229,1.0,17.0,255,0.00,,,0.00,0,Wunderground v.1.15,2013-03-05 23:10:00,
2013-03-05 15:20:00,44.2,-99.9,20.00,SW,225,0.0,17.0,255,0.00,,,0.00,0,Wunderground v.1.15,2013-03-05 23:20:00,
2013-03-05 15:30:00,43.6,-99.9,20.00,SSW,200,6.0,17.0,255,0.00,,,0.00,0,Wunderground v.1.15,2013-03-05 23:30:00,
2013-03-05 15:40:00,43.6,-99.9,20.00,SW,224,3.0,17.0,255,0.00,,,0.00,0,Wunderground v.1.15,2013-03-05 23:40:00,
2013-03-05 15:45:00,43.5,-99.9,20.00,WSW,241,5.0,17.0,255,0.00,,,0.00,0,Wunderground v.1.15,2013-03-05 23:45:00,
2013-03-05 15:55:00,43.2,-99.9,20.00,SW,236,3.0,17.0,255,0.00,,,0.00,0,Wunderground v.1.15,2013-03-05 23:55:00,
2013-03-05 16:05:00,43.3,-99.9,20.00,SW,232,6.0,17.0,255,0.00,,,0.00,0,Wunderground v.1.15,2013-03-06 00:05:00,
2013-03-05 16:15:00,43.1,-99.9,20.00,WSW,242,4.0,17.0,255,0.00,,,0.00,0,Wunderground v.1.15,2013-03-06 00:15:00,
2013-03-05 16:25:00,42.5,-99.9,20.00,WSW,246,0.0,17.0,255,0.00,,,0.00,0,Wunderground v.1.15,2013-03-06 00:25:00,
2013-03-05 16:35:00,41.8,-99.9,20.00,South,187,5.0,17.0,255,0.00,,,0.00,0,Wunderground v.1.15,2013-03-06 00:35:00,
2013-03-05 16:45:00,41.9,-99.9,20.00,SSW,207,8.0,17.0,255,0.00,,,0.00,0,Wunderground v.1.15,2013-03-06 00:45:00,
2013-03-05 16:55:00,41.8,-99.9,20.00,SW,215,5.0,17.0,255,0.00,,,0.00,0,Wunderground v.1.15,2013-03-06 00:55:00,
2013-03-05 17:05:00,41.6,-99.9,20.00,SSW,208,4.0,17.0,255,0.00,,,0.00,0,Wunderground v.1.15,2013-03-06 01:05:00,
2013-03-05 17:10:00,41.4,-99.9,20.00,SSW,212,7.0,17.0,255,0.00,,,0.00,0,Wunderground v.1.15,2013-03-06 01:10:00,
2013-03-05 17:20:00,41.4,-99.9,20.00,WSW,243,9.0,17.0,255,0.00,,,0.00,0,Wunderground v.1.15,2013-03-06 01:20:00,
2013-03-05 17:30:00,41.2,-99.9,20.00,WSW,238,3.0,17.0,255,0.00,,,0.00,0,Wunderground v.1.15,2013-03-06 01:30:00,
2013-03-05 17:40:00,41.3,-99.9,20.00,NW,304,3.0,17.0,255,0.00,,,0.00,0,Wunderground v.1.15,2013-03-06 01:40:00,
2013-03-05 17:50:00,40.1,-99.9,20.00,NNW,334,2.0,17.0,255,0.00,,,0.00,0,Wunderground v.1.15,2013-03-06 01:50:00,
2013-03-05 18:00:00,39.6,-99.9,20.00,North,0,3.0,17.0,255,0.00,,,0.00,0,Wunderground v.1.15,2013-03-06 02:00:00,
2013-03-05 18:10:00,40.0,-99.9,20.00,North,0,0.0,17.0,255,0.00,,,0.00,0,Wunderground v.1.15,2013-03-06 02:10:00,
2013-03-05 18:20:00,41.4,-99.9,20.00,North,0,0.0,17.0,255,0.00,,,0.00,0,Wunderground v.1.15,2013-03-06 02:20:00,
2013-03-05 18:30:00,40.7,-99.9,20.00,North,357,2.0,17.0,255,0.00,,,0.00,0,Wunderground v.1.15,2013-03-06 02:30:00,
2013-03-05 18:35:00,40.6,-99.9,20.00,North,353,0.0,17.0,255,0.00,,,0.00,0,Wunderground v.1.15,2013-03-06 02:35:00,
2013-03-05 18:45:00,41.0,-99.9,20.00,North,353,0.0,17.0,255,0.00,,,0.00,0,Wunderground v.1.15,2013-03-06 02:45:00,
2013-03-05 18:55:00,41.2,-99.9,20.00,WNW,302,2.0,17.0,255,0.00,,,0.00,0,Wunderground v.1.15,2013-03-06 02:55:00,
2013-03-05 19:00:00,40.9,-99.9,20.00,WNW,302,2.0,17.0,255,0.00,,,0.00,0,Wunderground v.1.15,2013-03-06 03:00:00,
2013-03-05 19:10:00,41.5,-99.9,20.00,WNW,302,0.0,17.0,255,0.00,,,0.00,0,Wunderground v.1.15,2013-03-06 03:10:00,
2013-03-05 19:20:00,40.3,-99.9,20.00,WSW,254,2.0,17.0,255,0.00,,,0.00,0,Wunderground v.1.15,2013-03-06 03:20:00,
2013-03-05 19:30:00,41.1,-99.9,20.00,WSW,254,1.0,17.0,255,0.00,,,0.00,0,Wunderground v.1.15,2013-03-06 03:30:00,
2013-03-05 19:40:00,40.1,-99.9,20.00,WSW,254,2.0,17.0,255,0.00,,,0.00,0,Wunderground v.1.15,2013-03-06 03:40:00,
2013-03-05 19:45:00,39.7,-99.9,20.00,WSW,256,4.0,17.0,255,0.00,,,0.00,0,Wunderground v.1.15,2013-03-06 03:45:00,
2013-03-05 19:55:00,39.7,-99.9,20.00,WSW,253,5.0,17.0,255,0.00,,,0.00,0,Wunderground v.1.15,2013-03-06 03:55:00,
2013-03-05 20:05:00,39.5,-99.9,20.00,WSW,239,0.0,17.0,255,0.00,,,0.00,0,Wunderground v.1.15,2013-03-06 04:05:00,
2013-03-05 20:10:00,38.6,-99.9,20.00,SW,232,2.0,17.0,255,0.00,,,0.00,0,Wunderground v.1.15,2013-03-06 04:10:00,
2013-03-05 20:20:00,38.9,-99.9,20.00,WSW,240,3.0,17.0,255,0.00,,,0.00,0,Wunderground v.1.15,2013-03-06 04:20:00,
2013-03-05 20:30:00,39.2,-99.9,20.00,WSW,241,1.0,17.0,255,0.00,,,0.00,0,Wunderground v.1.15,2013-03-06 04:30:00,
2013-03-05 20:35:00,39.1,-99.9,20.00,SW,231,4.0,17.0,255,0.00,,,0.00,0,Wunderground v.1.15,2013-03-06 04:35:00,
2013-03-05 20:45:00,38.9,-99.9,20.00,WSW,255,5.0,17.0,255,0.00,,,0.00,0,Wunderground v.1.15,2013-03-06 04:45:00,
2013-03-05 20:55:00,39.1,-99.9,20.00,WSW,254,0.0,17.0,255,0.00,,,0.00,0,Wunderground v.1.15,2013-03-06 04:55:00,
2013-03-05 21:00:00,39.5,-99.9,20.00,WSW,254,0.0,17.0,255,0.00,,,0.00,0,Wunderground v.1.15,2013-03-06 05:00:00,
2013-03-05 21:05:00,39.3,-99.9,20.00,WSW,254,2.0,17.0,255,0.00,,,0.00,0,Wunderground v.1.15,2013-03-06 05:05:00,
2013-03-05 21:10:00,39.2,-99.9,20.00,WSW,254,0.0,17.0,255,0.00,,,0.00,0,Wunderground v.1.15,2013-03-06 05:10:00,
2013-03-05 21:15:00,39.4,-99.9,20.00,WSW,256,1.0,17.0,255,0.00,,,0.00,0,Wunderground v.1.15,2013-03-06 05:15:00,
2013-03-05 21:25:00,38.8,-99.9,20.00,NW,310,5.0,17.0,255,0.00,,,0.00,0,Wunderground v.1.15,2013-03-06 05:25:00,
2013-03-05 21:35:00,38.9,-99.9,20.00,West,260,4.0,17.0,255,0.00,,,0.00,0,Wunderground v.1.15,2013-03-06 05:35:00,
2013-03-05 21:45:00,39.2,-99.9,20.00,WSW,258,3.0,17.0,255,0.00,,,0.00,0,Wunderground v.1.15,2013-03-06 05:45:00,
2013-03-05 21:55:00,38.8,-99.9,20.00,WSW,258,2.0,17.0,255,0.00,,,0.00,0,Wunderground v.1.15,2013-03-06 05:55:00,
2013-03-05 22:05:00,39.2,-99.9,20.00,WSW,258,1.0,17.0,255,0.00,,,0.00,0,Wunderground v.1.15,2013-03-06 06:05:00,
2013-03-05 22:15:00,38.2,-99.9,20.00,West,259,3.0,17.0,255,0.00,,,0.00,0,Wunderground v.1.15,2013-03-06 06:15:00,
2013-03-05 22:25:00,39.0,-99.9,20.00,West,259,1.0,17.0,255,0.00,,,0.00,0,Wunderground v.1.15,2013-03-06 06:25:00,
2013-03-05 22:35:00,37.8,-99.9,20.00,West,259,0.0,17.0,255,0.00,,,0.00,0,Wunderground v.1.15,2013-03-06 06:35:00,
2013-03-05 22:45:00,39.1,-99.9,20.00,West,259,0.0,17.0,255,0.00,,,0.00,0,Wunderground v.1.15,2013-03-06 06:45:00,
2013-03-05 22:55:00,38.6,-99.9,20.00,West,259,2.0,17.0,255,0.00,,,0.00,0,Wunderground v.1.15,2013-03-06 06:55:00,
2013-03-05 23:05:00,38.2,-99.9,20.00,West,259,2.0,17.0,255,0.00,,,0.00,0,Wunderground v.1.15,2013-03-06 07:05:00,
2013-03-05 23:10:00,37.6,-99.9,20.00,West,259,4.0,17.0,255,0.00,,,0.00,0,Wunderground v.1.15,2013-03-06 07:10:00,
2013-03-05 23:20:00,35.9,-99.9,20.00,SSE,165,4.0,17.0,255,0.00,,,0.00,0,Wunderground v.1.15,2013-03-06 07:20:00,
2013-03-05 23:30:00,36.6,-99.9,20.00,SSW,201,1.0,17.0,255,0.00,,,0.00,0,Wunderground v.1.15,2013-03-06 07:30:00,
2013-03-05 23:35:00,35.5,-99.9,20.00,SSW,201,0.0,17.0,255,0.00,,,0.00,0,Wunderground v.1.15,2013-03-06 07:35:00,
2013-03-05 23:45:00,36.1,-99.9,20.00,SSW,201,1.0,17.0,255,0.00,,,0.00,0,Wunderground v.1.15,2013-03-06 07:45:00,
2013-03-05 23:55:00,35.9,-99.9,20.00,SSW,201,0.0,17.0,255,0.00,,,0.00,0,Wunderground v.1.15,2013-03-06 07:55:00,